| time (UTC) | temp F | wind direction | speed MPH | gust MPH | rain 1hr in | rain 24hr in | rain mn in | humidity % | barometer mb |
| 20260509163018 | 65 | 5 | 2.0 | 4.0 | 0.00 | 0.00 | 0.00 | 76 | 1009.5 |
| 20260509161510 | 64 | 161 | 0.0 | 4.0 | 0.00 | 0.00 | 0.00 | 79 | 1009.7 |
| 20260509160008 | 63 | 5 | 0.0 | 3.0 | 0.00 | 0.00 | 0.00 | 82 | 1009.7 |
| 20260509154505 | 62 | 348 | 0.0 | 1.0 | 0.00 | 0.00 | 0.00 | 85 | 1009.7 |
| 20260509153110 | 61 | 155 | 0.0 | 0.0 | 0.00 | 0.00 | 0.00 | 88 | 1009.8 |
| 20260509153002 | 60 | 155 | 0.0 | 0.0 | 0.00 | 0.00 | 0.00 | 88 | 1009.8 |
| 20260509151500 | 60 | 138 | 0.0 | 4.0 | 0.00 | 0.00 | 0.00 | 88 | 1009.7 |
| 20260509150100 | 59 | 300 | 0.0 | 0.0 | 0.00 | 0.00 | 0.00 | 89 | 1009.7 |
| 20260509144601 | 59 | 300 | 0.0 | 3.0 | 0.00 | 0.00 | 0.00 | 89 | 1009.8 |
| 20260509143108 | 59 | 300 | 0.0 | 4.0 | 0.00 | 0.00 | 0.00 | 90 | 1009.8 |
| 20260509141558 | 58 | 261 | 2.0 | 5.0 | 0.00 | 0.00 | 0.00 | 90 | 1009.8 |
| 20260509140057 | 58 | 258 | 3.0 | 7.0 | 0.00 | 0.00 | 0.00 | 90 | 1009.7 |
| 20260509134556 | 58 | 249 | 4.0 | 6.0 | 0.00 | 0.00 | 0.00 | 90 | 1009.7 |
| 20260509133106 | 59 | 255 | 4.0 | 6.0 | 0.00 | 0.00 | 0.00 | 90 | 1009.4 |
| 20260509131554 | 59 | 263 | 1.0 | 4.0 | 0.00 | 0.00 | 0.00 | 90 | 1009.3 |
| 20260509130056 | 59 | 278 | 3.0 | 6.0 | 0.00 | 0.00 | 0.00 | 90 | 1009.4 |
| 20260509124552 | 59 | 250 | 0.0 | 6.0 | 0.00 | 0.00 | 0.00 | 90 | 1009.4 |
| 20260509123052 | 59 | 266 | 0.0 | 0.0 | 0.00 | 0.00 | 0.00 | 90 | 1009.3 |
| 20260509121553 | 59 | 272 | 0.0 | 4.0 | 0.00 | 0.00 | 0.00 | 90 | 1009.2 |
| 20260509120052 | 60 | 275 | 2.0 | 5.0 | 0.00 | 0.00 | 0.00 | 90 | 1009.1 |
| 20260509114550 | 60 | 271 | 0.0 | 4.0 | 0.00 | 0.00 | 0.00 | 90 | 1009.2 |
| 20260509113048 | 60 | 271 | 0.0 | 4.0 | 0.00 | 0.00 | 0.00 | 90 | 1009.1 |
| 20260509111547 | 60 | 271 | 0.0 | 0.0 | 0.00 | 0.00 | 0.00 | 90 | 1009.2 |
| 20260509110047 | 60 | 271 | 0.0 | 4.0 | 0.00 | 0.00 | 0.00 | 90 | 1009.2 |
| 20260509104601 | 60 | 269 | 0.0 | 0.0 | 0.00 | 0.00 | 0.00 | 89 | 1009.2 |
| 20260509103046 | 60 | 268 | 0.0 | 4.0 | 0.00 | 0.00 | 0.00 | 89 | 1009.3 |
| 20260509101543 | 60 | 90 | 0.0 | 0.0 | 0.00 | 0.00 | 0.00 | 89 | 1009.3 |
| 20260509100042 | 60 | 91 | 1.0 | 3.0 | 0.00 | 0.00 | 0.00 | 89 | 1009.3 |
| 20260509094542 | 61 | 45 | 0.0 | 0.0 | 0.00 | 0.00 | 0.00 | 89 | 1009.4 |
| 20260509093040 | 61 | 45 | 0.0 | 4.0 | 0.00 | 0.00 | 0.00 | 89 | 1009.6 |
| 20260509091543 | 61 | 22 | 0.0 | 2.0 | 0.00 | 0.00 | 0.00 | 89 | 1009.6 |
| 20260509090050 | 61 | 355 | 0.0 | 3.0 | 0.00 | 0.00 | 0.00 | 88 | 1009.7 |
| 20260509084537 | 61 | 257 | 0.0 | 4.0 | 0.00 | 0.00 | 0.00 | 88 | 1009.8 |
| 20260509083035 | 61 | 246 | 0.0 | 0.0 | 0.00 | 0.00 | 0.00 | 88 | 1009.9 |
| 20260509081548 | 61 | 123 | 0.0 | 1.0 | 0.00 | 0.00 | 0.00 | 88 | 1010.0 |
| 20260509080034 | 61 | 114 | 0.0 | 0.0 | 0.00 | 0.00 | 0.00 | 88 | 1010.1 |
| 20260509074532 | 61 | 114 | 0.0 | 0.0 | 0.00 | 0.00 | 0.00 | 88 | 1010.2 |
| 20260509073042 | 61 | 107 | 0.0 | 3.0 | 0.00 | 0.00 | 0.00 | 88 | 1010.3 |
| 20260509071538 | 61 | 96 | 0.0 | 0.0 | 0.00 | 0.00 | 0.00 | 88 | 1010.4 |
| 20260509070038 | 61 | 107 | 0.0 | 0.0 | 0.00 | 0.00 | 0.00 | 88 | 1010.5 |
| 20260509064530 | 61 | 106 | 0.0 | 0.0 | 0.00 | 0.00 | 0.00 | 88 | 1010.5 |
| 20260509063052 | 61 | 106 | 0.0 | 0.0 | 0.00 | 0.00 | 0.00 | 88 | 1010.5 |
| 20260509061541 | 61 | 106 | 0.0 | 0.0 | 0.00 | 0.00 | 0.00 | 88 | 1010.6 |
| 20260509060037 | 61 | 106 | 0.0 | 4.0 | 0.00 | 0.00 | 0.00 | 87 | 1010.6 |
| 20260509054524 | 62 | 49 | 0.0 | 0.0 | 0.00 | 0.00 | 0.00 | 87 | 1010.7 |
| 20260509053024 | 62 | 336 | 0.0 | 0.0 | 0.00 | 0.00 | 0.00 | 87 | 1010.7 |
| 20260509051524 | 62 | 317 | 0.0 | 0.0 | 0.00 | 0.00 | 0.00 | 87 | 1010.8 |
| 20260509050031 | 62 | 317 | 0.0 | 0.0 | 0.00 | 0.00 | 0.00 | 86 | 1010.7 |
| 20260509044525 | 62 | 317 | 0.0 | 0.0 | 0.00 | 0.00 | 0.00 | 86 | 1010.7 |
| 20260509043023 | 63 | 317 | 0.0 | 0.0 | 0.00 | 0.00 | 0.00 | 85 | 1010.6 |
| 20260509041523 | 63 | 317 | 0.0 | 3.0 | 0.00 | 0.00 | 0.00 | 84 | 1010.5 |
| 20260509040023 | 64 | 346 | 0.0 | 0.0 | 0.00 | 0.00 | 0.00 | 83 | 1010.4 |
| 20260509034521 | 64 | 317 | 0.0 | 3.0 | 0.00 | 0.00 | 0.00 | 82 | 1010.2 |
| 20260509033021 | 65 | 313 | 0.0 | 5.0 | 0.00 | 0.00 | 0.00 | 81 | 1010.1 |
| 20260509031621 | 66 | 313 | 1.0 | 5.0 | 0.00 | 0.00 | 0.00 | 79 | 1009.9 |
| 20260509030023 | 67 | 346 | 1.0 | 6.0 | 0.00 | 0.00 | 0.00 | 76 | 1009.8 |
| 20260509024520 | 68 | 355 | 0.0 | 7.0 | 0.00 | 0.00 | 0.00 | 74 | 1009.6 |
| 20260509023020 | 69 | 360 | 2.0 | 6.0 | 0.00 | 0.00 | 0.00 | 73 | 1009.4 |
| 20260509021521 | 70 | 28 | 3.0 | 8.0 | 0.00 | 0.00 | 0.00 | 70 | 1009.2 |
| 20260509020034 | 72 | 19 | 4.0 | 8.0 | 0.00 | 0.00 | 0.00 | 68 | 1009.1 |
| 20260509014534 | 74 | 17 | 3.0 | 8.0 | 0.00 | 0.00 | 0.00 | 64 | 1009.0 |
| 20260509013017 | 74 | 55 | 4.0 | 7.0 | 0.00 | 0.00 | 0.00 | 63 | 1009.0 |
| 20260509011517 | 74 | 119 | 2.0 | 8.0 | 0.00 | 0.00 | 0.00 | 62 | 1009.0 |
| 20260509010016 | 75 | 65 | 3.0 | 6.0 | 0.00 | 0.00 | 0.00 | 61 | 1009.0 |
| 20260509004517 | 75 | 93 | 3.0 | 8.0 | 0.00 | 0.00 | 0.00 | 61 | 1009.0 |
| 20260509003028 | 75 | 92 | 1.0 | 7.0 | 0.00 | 0.00 | 0.00 | 61 | 1009.0 |
| 20260509001516 | 75 | 44 | 4.0 | 8.0 | 0.00 | 0.00 | 0.00 | 61 | 1009.1 |
| 20260509000013 | 75 | 68 | 4.0 | 9.0 | 0.00 | 0.00 | 0.00 | 61 | 1009.2 |
| 20260508234512 | 76 | 79 | 3.0 | 12.0 | 0.00 | 0.00 | 0.00 | 60 | 1009.3 |
| 20260508233013 | 76 | 41 | 6.0 | 10.0 | 0.00 | 0.00 | 0.00 | 60 | 1009.2 |
| 20260508231511 | 76 | 111 | 4.0 | 10.0 | 0.00 | 0.00 | 0.00 | 59 | 1009.2 |
| 20260508230017 | 77 | 45 | 4.0 | 10.0 | 0.00 | 0.00 | 0.00 | 58 | 1009.3 |
| 20260508224509 | 78 | 9 | 6.0 | 11.0 | 0.00 | 0.00 | 0.00 | 57 | 1009.4 |
| 20260508223010 | 78 | 71 | 6.0 | 12.0 | 0.00 | 0.00 | 0.00 | 57 | 1009.4 |
| 20260508221507 | 78 | 31 | 4.0 | 12.0 | 0.00 | 0.00 | 0.00 | 57 | 1009.5 |
| 20260508220005 | 79 | 46 | 6.0 | 12.0 | 0.00 | 0.00 | 0.00 | 56 | 1009.7 |
| 20260508214513 | 80 | 51 | 9.0 | 13.0 | 0.00 | 0.00 | 0.00 | 54 | 1009.7 |
| 20260508213004 | 80 | 14 | 7.0 | 12.0 | 0.00 | 0.00 | 0.00 | 53 | 1009.7 |
| 20260508211505 | 80 | 44 | 4.0 | 10.0 | 0.00 | 0.00 | 0.00 | 53 | 1009.7 |
| 20260508210001 | 80 | 60 | 5.0 | 9.0 | 0.00 | 0.00 | 0.00 | 53 | 1009.7 |
| 20260508204600 | 80 | 24 | 4.0 | 12.0 | 0.00 | 0.00 | 0.00 | 53 | 1009.9 |
| 20260508203106 | 80 | 355 | 4.0 | 11.0 | 0.00 | 0.00 | 0.00 | 52 | 1010.0 |
| 20260508201602 | 79 | 46 | 0.0 | 7.0 | 0.00 | 0.00 | 0.00 | 51 | 1010.0 |
| 20260508200053 | 79 | 46 | 4.0 | 8.0 | 0.00 | 0.00 | 0.00 | 52 | 1010.2 |
| 20260508194550 | 77 | 98 | 1.0 | 8.0 | 0.00 | 0.00 | 0.00 | 55 | 1010.4 |
| 20260508193046 | 76 | 355 | 0.0 | 6.0 | 0.00 | 0.00 | 0.00 | 59 | 1010.7 |
| 20260508191543 | 75 | 322 | 3.0 | 8.0 | 0.00 | 0.00 | 0.00 | 61 | 1010.9 |
| 20260508190038 | 74 | 322 | 3.0 | 5.0 | 0.00 | 0.00 | 0.00 | 64 | 1011.0 |
| 20260508184535 | 72 | 254 | 1.0 | 5.0 | 0.00 | 0.00 | 0.00 | 67 | 1011.2 |
| 20260508183035 | 70 | 5 | 0.0 | 6.0 | 0.00 | 0.00 | 0.00 | 69 | 1011.4 |
| 20260508181533 | 69 | 53 | 0.0 | 5.0 | 0.00 | 0.00 | 0.00 | 72 | 1011.6 |
| 20260508180022 | 68 | 56 | 1.0 | 6.0 | 0.00 | 0.00 | 0.00 | 73 | 1011.8 |
| 20260508174518 | 67 | 64 | 0.0 | 7.0 | 0.00 | 0.00 | 0.00 | 76 | 1011.8 |
| 20260508173018 | 66 | 119 | 0.0 | 8.0 | 0.00 | 0.00 | 0.00 | 78 | 1011.9 |
| 20260508171523 | 65 | 5 | 3.0 | 6.0 | 0.00 | 0.00 | 0.00 | 79 | 1011.9 |
| 20260508170012 | 64 | 13 | 0.0 | 4.0 | 0.00 | 0.00 | 0.00 | 81 | 1012.0 |
| 20260508164507 | 63 | 196 | 0.0 | 3.0 | 0.00 | 0.00 | 0.00 | 84 | 1012.1 |